When you browse on this site, cookies collect data to enhance your experience and personalize the content and advertising you see.
Visit our Privacy Policy to learn more. By continuing to use the site, you agree to this use of cookies and data.
  • In Latvia
  • List of Countries
  • For 7 days
  • Water Temperature
  • Weather Map
  • Weather Widgets
  • user-avatar
    Login

    Hourly Weather Zofiow

    Today, 16 October, Wednesday

    Time Temperature Precipitation Wind Pressure Humidity
    00:00 +13°C° 0 mm 3 mps 742 mmHg 79%
    01:00 +13°C° 0 mm 3 mps 742 mmHg 76%
    02:00 +13°C° 0 mm 3 mps 742 mmHg 75%
    03:00 +13°C° 0 mm 3 mps 741 mmHg 75%
    04:00 +12°C° 0 mm 3 mps 741 mmHg 74%
    05:00 +13°C° 0 mm 4 mps 741 mmHg 72%
    06:00 +13°C° 0 mm 4 mps 741 mmHg 71%
    07:00 +14°C° 0 mm 5 mps 741 mmHg 69%
    08:00 +15°C° 0 mm 5 mps 742 mmHg 66%
    09:00 +17°C° 0 mm 6 mps 742 mmHg 64%
    10:00 +18°C° 0 mm 7 mps 742 mmHg 62%
    11:00 +20°C° 0 mm 7 mps 742 mmHg 62%
    12:00 +20°C° 0 mm 7 mps 743 mmHg 63%
    13:00 +21°C° 0 mm 6 mps 743 mmHg 62%
    14:00 +19°C° 0 mm 6 mps 743 mmHg 67%
    15:00 +17°C° 0 mm 6 mps 743 mmHg 72%
    16:00 +15°C° 0 mm 6 mps 743 mmHg 78%
    17:00 +15°C° 0 mm 5 mps 744 mmHg 78%
    18:00 +14°C° 0 mm 5 mps 744 mmHg 77%
    19:00 +13°C° 0 mm 4 mps 745 mmHg 77%
    20:00 +12°C° 0 mm 4 mps 745 mmHg 76%
    21:00 +12°C° 0 mm 4 mps 745 mmHg 74%
    22:00 +12°C° 0 mm 5 mps 746 mmHg 72%
    23:00 +10°C° 0 mm 5 mps 746 mmHg 72%

    Tomorrow, 17 October, Thursday

    Time Temperature Precipitation Wind Pressure Humidity
    00:00 +10°C° 0 mm 5 mps 746 mmHg 72%
    01:00 +10°C° 0 mm 5 mps 747 mmHg 72%
    02:00 +11°C° 0 mm 4 mps 747 mmHg 73%
    03:00 +10°C° 0 mm 4 mps 747 mmHg 74%
    04:00 +10°C° 0 mm 4 mps 747 mmHg 74%
    05:00 +10°C° 0 mm 4 mps 747 mmHg 75%
    06:00 +10°C° 0 mm 4 mps 747 mmHg 75%
    07:00 +10°C° 0 mm 4 mps 747 mmHg 76%
    08:00 +12°C° 0 mm 4 mps 747 mmHg 69%
    09:00 +14°C° 0 mm 4 mps 747 mmHg 63%
    10:00 +17°C° 0 mm 4 mps 748 mmHg 56%
    11:00 +18°C° 0 mm 4 mps 747 mmHg 53%
    12:00 +18°C° 0 mm 4 mps 747 mmHg 50%
    13:00 +19°C° 0 mm 4 mps 747 mmHg 47%
    14:00 +19°C° 0 mm 3 mps 747 mmHg 50%
    15:00 +18°C° 0 mm 3 mps 747 mmHg 53%
    16:00 +18°C° 0 mm 2 mps 747 mmHg 56%
    17:00 +17°C° 0 mm 2 mps 747 mmHg 58%
    18:00 +16°C° 0 mm 3 mps 747 mmHg 61%
    19:00 +14°C° 0 mm 3 mps 747 mmHg 64%
    20:00 +13°C° 0 mm 3 mps 747 mmHg 64%
    21:00 +13°C° 0 mm 3 mps 747 mmHg 65%
    22:00 +13°C° 0 mm 3 mps 747 mmHg 66%
    23:00 +12°C° 0 mm 3 mps 747 mmHg 67%

    Day after tomorrow, 18 October, Friday

    Time Temperature Precipitation Wind Pressure Humidity
    00:00 +12°C° 0 mm 3 mps 747 mmHg 67%
    01:00 +12°C° 0 mm 3 mps 747 mmHg 67%
    02:00 +12°C° 0 mm 2 mps 747 mmHg 70%
    03:00 +12°C° 0 mm 2 mps 747 mmHg 72%
    04:00 +12°C° 0 mm 2 mps 747 mmHg 75%
    05:00 +12°C° 0 mm 2 mps 747 mmHg 76%
    06:00 +12°C° 0 mm 2 mps 747 mmHg 77%
    07:00 +12°C° 0 mm 2 mps 747 mmHg 78%
    08:00 +14°C° 0 mm 2 mps 747 mmHg 73%
    09:00 +14°C° 0 mm 3 mps 747 mmHg 68%
    10:00 +17°C° 0 mm 3 mps 747 mmHg 62%
    11:00 +18°C° 0 mm 3 mps 747 mmHg 60%
    12:00 +19°C° 0 mm 3 mps 746 mmHg 58%
    13:00 +19°C° 0 mm 3 mps 746 mmHg 56%
    14:00 +19°C° 0 mm 2 mps 746 mmHg 58%
    15:00 +18°C° 0 mm 2 mps 746 mmHg 60%
    16:00 +19°C° 0 mm 1 mps 745 mmHg 63%
    17:00 +17°C° 0 mm 2 mps 745 mmHg 65%
    18:00 +16°C° 0 mm 2 mps 745 mmHg 66%
    19:00 +16°C° 0 mm 2 mps 745 mmHg 68%
    20:00 +15°C° 0 mm 2 mps 745 mmHg 69%
    21:00 +15°C° 0 mm 2 mps 745 mmHg 70%
    22:00 +14°C° 0 mm 2 mps 745 mmHg 72%
    23:00 +14°C° 0 mm 2 mps 745 mmHg 71%

    19 October, Saturday

    Time Temperature Precipitation Wind Pressure Humidity
    00:00 +14°C° 0 mm 2 mps 745 mmHg 71%
    01:00 +13°C° 0 mm 2 mps 745 mmHg 71%
    02:00 +13°C° 0 mm 2 mps 745 mmHg 71%
    03:00 +13°C° 0 mm 2 mps 745 mmHg 71%
    04:00 +13°C° 0 mm 2 mps 745 mmHg 71%
    05:00 +13°C° 0 mm 2 mps 745 mmHg 72%
    06:00 +13°C° 0 mm 2 mps 745 mmHg 72%
    07:00 +13°C° 0 mm 1 mps 745 mmHg 73%
    08:00 +15°C° 0 mm 1 mps 745 mmHg 68%
    09:00 +16°C° 0 mm 1 mps 745 mmHg 63%
    10:00 +19°C° 0 mm 1 mps 745 mmHg 59%
    11:00 +19°C° 0 mm 2 mps 745 mmHg 57%
    12:00 +19°C° 0 mm 2 mps 745 mmHg 55%
    13:00 +20°C° 0 mm 2 mps 745 mmHg 54%
    14:00 +19°C° 0 mm 2 mps 745 mmHg 57%
    15:00 +19°C° 0 mm 2 mps 745 mmHg 60%
    16:00 +19°C° 0 mm 1 mps 745 mmHg 63%
    17:00 +17°C° 0 mm 2 mps 745 mmHg 66%
    18:00 +16°C° 0 mm 2 mps 745 mmHg 69%
    19:00 +15°C° 0 mm 2 mps 745 mmHg 72%
    20:00 +15°C° 0 mm 2 mps 745 mmHg 74%
    21:00 +14°C° 0 mm 2 mps 745 mmHg 75%
    22:00 +14°C° 0 mm 2 mps 745 mmHg 77%
    23:00 +14°C° 0 mm 2 mps 745 mmHg 78%

    20 October, Sunday

    Time Temperature Precipitation Wind Pressure Humidity
    00:00 +13°C° 0 mm 2 mps 745 mmHg 79%
    01:00 +13°C° 0 mm 2 mps 745 mmHg 80%
    02:00 +13°C° 0 mm 2 mps 745 mmHg 81%
    03:00 +13°C° 0 mm 2 mps 745 mmHg 81%
    04:00 +12°C° 0 mm 3 mps 745 mmHg 82%
    05:00 +12°C° 0 mm 3 mps 745 mmHg 82%
    06:00 +12°C° 0 mm 3 mps 745 mmHg 83%
    07:00 +12°C° 0 mm 3 mps 745 mmHg 83%
    08:00 +14°C° 0 mm 3 mps 745 mmHg 75%
    09:00 +17°C° 0 mm 3 mps 745 mmHg 67%
    10:00 +18°C° 0 mm 3 mps 745 mmHg 59%
    11:00 +19°C° 0 mm 3 mps 745 mmHg 56%
    12:00 +20°C° 0 mm 3 mps 745 mmHg 53%
    13:00 +21°C° 0 mm 3 mps 745 mmHg 50%
    14:00 +20°C° 0 mm 3 mps 745 mmHg 55%
    15:00 +19°C° 0 mm 3 mps 745 mmHg 60%
    16:00 +18°C° 0 mm 3 mps 745 mmHg 65%
    17:00 +17°C° 0 mm 3 mps 745 mmHg 69%
    18:00 +16°C° 0 mm 3 mps 746 mmHg 73%
    19:00 +15°C° 0 mm 2 mps 746 mmHg 77%
    20:00 +15°C° 0 mm 2 mps 747 mmHg 79%
    21:00 +14°C° 0 mm 2 mps 747 mmHg 82%
    22:00 +14°C° 0 mm 2 mps 747 mmHg 85%
    23:00 +13°C° 0 mm 2 mps 748 mmHg 87%

    21 October, Monday

    Time Temperature Precipitation Wind Pressure Humidity
    00:00 +12°C° 0 mm 3 mps 748 mmHg 89%
    01:00 +12°C° 0 mm 3 mps 748 mmHg 91%
    02:00 +12°C° 0 mm 2 mps 749 mmHg 92%
    03:00 +12°C° 0 mm 2 mps 749 mmHg 93%
    04:00 +12°C° 0 mm 2 mps 750 mmHg 94%
    05:00 +12°C° 0 mm 2 mps 750 mmHg 94%
    06:00 +12°C° 0 mm 2 mps 750 mmHg 95%
    07:00 +11°C° 0 mm 1 mps 751 mmHg 95%
    08:00 +13°C° 0 mm 2 mps 751 mmHg 89%
    09:00 +14°C° 0 mm 2 mps 751 mmHg 82%
    10:00 +16°C° 0 mm 2 mps 752 mmHg 76%
    11:00 +17°C° 0 mm 2 mps 752 mmHg 72%
    12:00 +17°C° 0 mm 2 mps 752 mmHg 69%
    13:00 +18°C° 0 mm 2 mps 752 mmHg 65%
    14:00 +18°C° 0 mm 2 mps 752 mmHg 67%
    15:00 +17°C° 0 mm 2 mps 752 mmHg 69%
    16:00 +17°C° 0 mm 2 mps 752 mmHg 71%
    17:00 +16°C° 0 mm 2 mps 752 mmHg 75%
    18:00 +15°C° 0 mm 2 mps 752 mmHg 78%
    19:00 +14°C° 0 mm 2 mps 753 mmHg 81%
    20:00 +13°C° 0 mm 2 mps 753 mmHg 84%
    21:00 +13°C° 0 mm 2 mps 753 mmHg 86%
    22:00 +12°C° 0 mm 2 mps 753 mmHg 89%
    23:00 +12°C° 0 mm 2 mps 753 mmHg 90%
    Show more